TimeMDT,TemperatureF,Dew PointF,Humidity,Sea Level PressureIn,VisibilityMPH,Wind Direction,Wind SpeedMPH,Gust SpeedMPH,PrecipitationIn,Events,Conditions,WindDirDegrees,DateUTC
12:51 AM,54.0,10.0,17,29.90,10.0,NNE,3.5,-,N/A,,Clear,20,2013-03-30 06:51:00
1:51 AM,57.0,10.9,16,29.88,10.0,West,9.2,-,N/A,,Clear,270,2013-03-30 07:51:00
2:51 AM,48.0,19.9,33,29.92,10.0,NNE,3.5,-,N/A,,Clear,30,2013-03-30 08:51:00
3:51 AM,50.0,14.0,24,29.91,10.0,Calm,Calm,-,N/A,,Clear,0,2013-03-30 09:51:00
4:51 AM,48.9,12.0,23,29.91,10.0,Calm,Calm,-,N/A,,Clear,0,2013-03-30 10:51:00
5:51 AM,43.0,9.0,25,29.94,10.0,SSW,4.6,-,N/A,,Clear,200,2013-03-30 11:51:00
6:51 AM,42.1,8.1,25,29.96,10.0,WSW,3.5,-,N/A,,Clear,250,2013-03-30 12:51:00
7:51 AM,51.1,10.9,20,29.96,10.0,West,3.5,-,N/A,,Clear,270,2013-03-30 13:51:00
8:51 AM,57.0,12.9,18,29.98,10.0,NNE,4.6,-,N/A,,Clear,30,2013-03-30 14:51:00
9:51 AM,61.0,19.9,21,29.97,10.0,Variable,3.5,-,N/A,,Clear,0,2013-03-30 15:51:00
10:51 AM,69.1,21.9,17,29.95,10.0,North,6.9,-,N/A,,Clear,10,2013-03-30 16:51:00
11:51 AM,73.0,23.0,15,29.94,10.0,East,6.9,-,N/A,,Clear,90,2013-03-30 17:51:00
12:51 PM,79.0,23.0,13,29.90,10.0,ENE,5.8,-,N/A,,Clear,60,2013-03-30 18:51:00
1:51 PM,81.0,21.0,11,29.86,10.0,Variable,4.6,-,N/A,,Clear,0,2013-03-30 19:51:00
2:51 PM,82.0,19.0,10,29.84,10.0,ENE,5.8,-,N/A,,Clear,70,2013-03-30 20:51:00
3:51 PM,81.0,18.0,10,29.81,10.0,Calm,Calm,-,N/A,,Clear,0,2013-03-30 21:51:00
4:51 PM,82.0,19.0,10,29.78,10.0,ESE,10.4,-,N/A,,Clear,120,2013-03-30 22:51:00
5:51 PM,80.1,18.0,10,29.79,10.0,SSE,12.7,-,N/A,,Clear,160,2013-03-30 23:51:00
6:51 PM,78.1,16.0,10,29.80,10.0,South,11.5,-,N/A,,Clear,170,2013-03-31 00:51:00
7:51 PM,75.9,17.1,11,29.79,10.0,South,9.2,-,N/A,,Partly Cloudy,170,2013-03-31 01:51:00
8:51 PM,75.9,17.1,11,29.80,10.0,NW,6.9,-,N/A,,Clear,320,2013-03-31 02:51:00
9:51 PM,73.9,19.0,13,29.81,10.0,West,20.7,-,N/A,,Clear,260,2013-03-31 03:51:00
10:51 PM,73.0,19.9,14,29.81,10.0,West,11.5,-,N/A,,Clear,270,2013-03-31 04:51:00
11:51 PM,71.1,19.9,14,29.80,10.0,West,10.4,-,N/A,,Clear,280,2013-03-31 05:51:00